Location: Unspecified
(0.0000°N, 0.0000°E)
Time: 06:10:02
(UTC+00:00)

Tiros 1 - Pass Details

Date: 05 October 2020
Orbit: 630 x 663 km, 48.4° (Epoch: 28 October)

Event Time Altitude Azimuth Distance (km) Brightness Sun altitude
Rises 07:36:25 0° 185° (S) 2,914 10.5 26.9°
Reaches altitude 10° 07:40:08 10° 155° (SSE) 2,003 10.2 27.8°
Maximum altitude 07:42:00 12° 130° (SE) 1,854 10.5 28.3°
Drops below altitude 10° 07:43:51 10° 106° (ESE) 2,001 11.3 28.8°
Sets 07:47:33 0° 76° (ENE) 2,908 11.5 29.7°
